Time,TemperatureF,DewpointF,PressureIn,WindDirection,WindDirectionDegrees,WindSpeedMPH,WindSpeedGustMPH,Humidity,HourlyPrecipIn,Conditions,Clouds,dailyrainin,SolarRadiationWatts/m^2,SoftwareType,DateUTC
2013-03-13 00:00:00,33.3,32.3,29.73,WNW,294,2.0,2.0,96,0.03,-RA,FEW,0.45,0.0,WeatherDisplay:10.37,2013-03-13 04:00:00,
2013-03-13 00:02:00,33.2,32.2,29.73,North,360,3.5,3.5,96,0.03,-RA,FEW,0.00,0.0,WeatherDisplay:10.37,2013-03-13 04:02:00,
2013-03-13 00:05:00,33.1,32.1,29.74,North,360,1.2,0.0,96,0.03,-RA,FEW,0.00,0.0,WeatherDisplay:10.37,2013-03-13 04:05:00,
2013-03-13 00:10:00,33.0,32.0,29.74,North,360,0.0,0.0,96,0.02,-RA,FEW,0.00,0.0,WeatherDisplay:10.37,2013-03-13 04:10:00,
2013-03-13 00:15:00,32.8,31.8,29.75,SE,134,2.3,0.0,96,0.02,-RA,FEW,0.00,0.0,WeatherDisplay:10.37,2013-03-13 04:15:00,
2013-03-13 00:20:00,32.4,31.4,29.75,SSW,198,2.3,2.3,96,0.02,-RA,FEW,0.00,0.0,WeatherDisplay:10.37,2013-03-13 04:20:00,
2013-03-13 00:25:00,32.2,31.2,29.75,South,185,4.0,4.0,96,0.02,-RA,FEW,0.00,0.0,WeatherDisplay:10.37,2013-03-13 04:25:00,
2013-03-13 00:30:00,31.9,30.9,29.75,SSE,162,1.2,1.2,96,0.02,-RA,FEW,0.01,0.0,WeatherDisplay:10.37,2013-03-13 04:30:00,
2013-03-13 00:35:00,31.8,30.8,29.75,SW,236,2.3,2.3,96,0.02,-RA,FEW,0.01,0.0,WeatherDisplay:10.37,2013-03-13 04:35:00,
2013-03-13 00:40:00,31.6,30.6,29.76,WSW,237,2.0,2.0,96,0.01,-RA,FEW,0.01,0.0,WeatherDisplay:10.37,2013-03-13 04:40:00,
2013-03-13 00:45:00,31.5,30.5,29.76,SSW,209,1.2,0.0,96,0.01,-RA,FEW,0.01,0.0,WeatherDisplay:10.37,2013-03-13 04:45:00,
2013-03-13 00:50:00,31.4,30.4,29.76,SW,216,3.5,3.5,96,0.01,-RA,FEW,0.01,0.0,WeatherDisplay:10.37,2013-03-13 04:50:00,
2013-03-13 00:55:00,31.3,30.3,29.76,SW,216,1.2,0.0,96,0.01,-RA,FEW,0.01,0.0,WeatherDisplay:10.37,2013-03-13 04:55:00,
2013-03-13 01:00:00,31.3,30.3,29.76,SW,216,0.0,0.0,96,0.01,-RA,FEW,0.01,0.0,WeatherDisplay:10.37,2013-03-13 05:00:00,
2013-03-13 01:05:00,31.2,30.2,29.77,West,260,1.2,1.2,96,0.01,-RA,FEW,0.01,0.0,WeatherDisplay:10.37,2013-03-13 05:05:00,
2013-03-13 01:10:00,31.1,30.1,29.77,West,262,0.0,0.0,96,0.01,-RA,FEW,0.01,0.0,WeatherDisplay:10.37,2013-03-13 05:10:00,
2013-03-13 01:15:00,31.1,30.1,29.77,West,263,1.2,1.2,96,0.01,-RA,FEW,0.01,0.0,WeatherDisplay:10.37,2013-03-13 05:15:00,
2013-03-13 01:20:00,31.1,30.1,29.77,WNW,288,5.0,5.0,96,0.01,-RA,FEW,0.01,0.0,WeatherDisplay:10.37,2013-03-13 05:20:00,
2013-03-13 01:25:00,31.0,30.0,29.76,SSW,199,2.3,2.3,96,0.01,-RA,FEW,0.01,0.0,WeatherDisplay:10.37,2013-03-13 05:25:00,
2013-03-13 03:04:00,30.3,29.6,29.75,WSW,242,1.2,1.2,97,0.00,-RA,FEW,0.01,0.0,WeatherDisplay:10.37,2013-03-13 07:04:00,
2013-03-13 03:09:00,30.3,29.6,29.75,WSW,242,0.0,0.0,97,0.00,-RA,FEW,0.01,0.0,WeatherDisplay:10.37,2013-03-13 07:09:00,
2013-03-13 03:14:00,30.3,29.3,29.75,WSW,243,0.0,0.0,96,0.00,-RA,FEW,0.01,0.0,WeatherDisplay:10.37,2013-03-13 07:14:00,
2013-03-13 03:19:00,30.3,29.3,29.75,West,266,0.0,0.0,96,0.00,OVC,FEW,0.01,0.0,WeatherDisplay:10.37,2013-03-13 07:19:00,
2013-03-13 03:24:00,30.2,29.2,29.75,NW,315,0.0,0.0,96,0.00,OVC,FEW,0.01,0.0,WeatherDisplay:10.37,2013-03-13 07:24:00,
2013-03-13 03:29:00,30.2,29.2,29.75,West,260,3.5,3.5,96,0.00,OVC,FEW,0.01,0.0,WeatherDisplay:10.37,2013-03-13 07:29:00,
2013-03-13 03:34:00,30.2,29.2,29.75,WSW,246,0.0,0.0,96,0.00,OVC,FEW,0.01,0.0,WeatherDisplay:10.37,2013-03-13 07:34:00,
2013-03-13 03:39:00,30.2,29.2,29.75,WSW,246,0.0,0.0,96,0.00,OVC,FEW,0.01,0.0,WeatherDisplay:10.37,2013-03-13 07:39:00,
2013-03-13 03:44:00,30.2,29.2,29.75,WSW,246,0.0,0.0,96,0.00,OVC,FEW,0.01,0.0,WeatherDisplay:10.37,2013-03-13 07:44:00,
2013-03-13 03:49:00,30.2,29.2,29.75,SSW,211,2.0,2.0,96,0.00,OVC,FEW,0.01,0.0,WeatherDisplay:10.37,2013-03-13 07:49:00,
2013-03-13 03:54:00,30.1,29.1,29.75,SSW,210,1.2,1.2,96,0.00,OVC,FEW,0.01,0.0,WeatherDisplay:10.37,2013-03-13 07:54:00,
2013-03-13 03:59:00,30.1,29.1,29.75,SW,215,2.0,2.0,96,0.00,OVC,FEW,0.01,0.0,WeatherDisplay:10.37,2013-03-13 07:59:00,
2013-03-13 04:04:00,30.1,29.1,29.75,SW,219,0.0,0.0,96,0.00,OVC,FEW,0.01,0.0,WeatherDisplay:10.37,2013-03-13 08:04:00,
2013-03-13 04:09:00,30.1,29.1,29.75,SW,219,1.2,0.0,96,0.00,OVC,FEW,0.01,0.0,WeatherDisplay:10.37,2013-03-13 08:09:00,
2013-03-13 04:14:00,30.1,29.1,29.75,SW,219,0.0,0.0,96,0.00,OVC,FEW,0.01,0.0,WeatherDisplay:10.37,2013-03-13 08:14:00,
2013-03-13 04:19:00,30.1,29.1,29.75,SW,219,1.2,0.0,96,0.00,OVC,FEW,0.01,0.0,WeatherDisplay:10.37,2013-03-13 08:19:00,
2013-03-13 04:24:00,30.1,29.1,29.75,SW,227,2.3,2.3,96,0.00,OVC,FEW,0.01,0.0,WeatherDisplay:10.37,2013-03-13 08:24:00,
2013-03-13 04:29:00,30.1,29.1,29.75,SW,227,1.2,1.2,96,0.00,OVC,FEW,0.01,0.0,WeatherDisplay:10.37,2013-03-13 08:29:00,
2013-03-13 04:34:00,30.1,29.1,29.75,SW,229,1.0,1.0,96,0.00,OVC,FEW,0.01,0.0,WeatherDisplay:10.37,2013-03-13 08:34:00,
2013-03-13 04:39:00,30.1,29.1,29.75,SSE,162,1.0,0.0,96,0.00,OVC,FEW,0.01,0.0,WeatherDisplay:10.37,2013-03-13 08:39:00,
2013-03-13 04:44:00,30.1,29.1,29.75,SSE,162,0.0,0.0,96,0.00,OVC,FEW,0.01,0.0,WeatherDisplay:10.37,2013-03-13 08:44:00,
2013-03-13 04:49:00,30.1,29.1,29.75,SSE,162,1.0,0.0,96,0.00,OVC,FEW,0.01,0.0,WeatherDisplay:10.37,2013-03-13 08:49:00,
2013-03-13 04:54:00,30.1,29.1,29.75,SSE,167,0.0,0.0,96,0.00,OVC,FEW,0.01,0.0,WeatherDisplay:10.37,2013-03-13 08:54:00,
2013-03-13 04:59:00,30.0,29.0,29.75,North,11,3.5,3.5,96,0.00,OVC,FEW,0.01,0.0,WeatherDisplay:10.37,2013-03-13 08:59:00,
2013-03-13 05:04:00,30.1,29.1,29.75,North,11,0.0,0.0,96,0.00,OVC,FEW,0.01,0.0,WeatherDisplay:10.37,2013-03-13 09:04:00,
2013-03-13 05:09:00,30.1,29.1,29.75,North,11,0.0,0.0,96,0.00,OVC,FEW,0.01,0.0,WeatherDisplay:10.37,2013-03-13 09:09:00,
2013-03-13 05:14:00,30.1,29.1,29.76,North,11,0.0,0.0,96,0.00,OVC,FEW,0.01,0.0,WeatherDisplay:10.37,2013-03-13 09:14:00,
2013-03-13 05:19:00,30.1,29.1,29.76,North,11,0.0,0.0,96,0.00,OVC,FEW,0.01,0.0,WeatherDisplay:10.37,2013-03-13 09:19:00,
2013-03-13 05:24:00,30.0,29.0,29.76,North,11,0.0,0.0,96,0.00,OVC,FEW,0.01,0.0,WeatherDisplay:10.37,2013-03-13 09:24:00,
2013-03-13 05:29:00,30.1,29.1,29.75,North,11,0.0,0.0,96,0.00,OVC,FEW,0.01,0.0,WeatherDisplay:10.37,2013-03-13 09:29:00,
2013-03-13 05:34:00,30.0,29.0,29.76,SW,230,2.3,2.3,96,0.00,OVC,FEW,0.01,0.0,WeatherDisplay:10.37,2013-03-13 09:34:00,
2013-03-13 05:39:00,30.0,29.0,29.76,North,360,0.0,0.0,96,0.00,OVC,FEW,0.01,0.0,WeatherDisplay:10.37,2013-03-13 09:39:00,
2013-03-13 05:44:00,30.0,29.0,29.76,North,5,0.0,0.0,96,0.00,OVC,FEW,0.01,0.0,WeatherDisplay:10.37,2013-03-13 09:44:00,
2013-03-13 05:49:00,30.1,29.1,29.76,NNE,29,1.2,1.2,96,0.00,OVC,FEW,0.01,0.0,WeatherDisplay:10.37,2013-03-13 09:49:00,
2013-03-13 05:54:00,30.1,29.1,29.76,NNE,29,0.0,0.0,96,0.00,OVC,FEW,0.01,0.0,WeatherDisplay:10.37,2013-03-13 09:54:00,
2013-03-13 05:59:00,30.1,29.1,29.75,West,261,1.0,1.0,96,0.00,OVC,FEW,0.01,0.0,WeatherDisplay:10.37,2013-03-13 09:59:00,
2013-03-13 06:04:00,30.1,29.1,29.75,WNW,288,0.0,0.0,96,0.00,OVC,FEW,0.01,0.0,WeatherDisplay:10.37,2013-03-13 10:04:00,
2013-03-13 06:09:00,30.0,29.0,29.75,West,263,0.0,0.0,96,0.00,OVC,FEW,0.01,0.0,WeatherDisplay:10.37,2013-03-13 10:09:00,
2013-03-13 06:14:00,30.0,29.3,29.75,WNW,301,2.3,2.3,97,0.00,OVC,FEW,0.01,0.0,WeatherDisplay:10.37,2013-03-13 10:14:00,
2013-03-13 06:19:00,30.0,29.3,29.76,West,265,3.5,3.5,97,0.00,OVC,FEW,0.01,0.0,WeatherDisplay:10.37,2013-03-13 10:19:00,
2013-03-13 06:24:00,29.9,29.2,29.76,West,263,1.2,1.2,97,0.00,OVC,FEW,0.01,0.0,WeatherDisplay:10.37,2013-03-13 10:24:00,
2013-03-13 06:29:00,29.9,29.2,29.76,West,270,1.2,1.2,97,0.00,OVC,FEW,0.01,0.0,WeatherDisplay:10.37,2013-03-13 10:29:00,
2013-03-13 06:34:00,29.8,29.1,29.75,West,269,0.0,0.0,97,0.00,-RA,FEW,0.01,0.0,WeatherDisplay:10.37,2013-03-13 10:34:00,
2013-03-13 06:39:00,29.8,29.1,29.76,SSW,199,2.0,2.0,97,0.00,-RA,FEW,0.01,0.0,WeatherDisplay:10.37,2013-03-13 10:39:00,
2013-03-13 06:44:00,29.8,29.1,29.76,SSW,201,2.3,2.3,97,0.00,-RA,FEW,0.01,0.0,WeatherDisplay:10.37,2013-03-13 10:44:00,
2013-03-13 06:49:00,29.8,29.1,29.76,SSW,198,1.2,0.0,97,0.00,-RA,FEW,0.01,0.0,WeatherDisplay:10.37,2013-03-13 10:49:00,
2013-03-13 06:54:00,29.8,29.1,29.76,SSW,200,2.3,2.3,97,0.00,-RA,FEW,0.01,0.0,WeatherDisplay:10.37,2013-03-13 10:54:00,
2013-03-13 06:59:00,29.7,28.7,29.76,SSW,201,1.2,0.0,96,0.00,-RA,FEW,0.01,0.0,WeatherDisplay:10.37,2013-03-13 10:59:00,
2013-03-13 07:04:00,29.7,28.7,29.76,SSW,200,1.0,0.0,96,0.00,OVC,FEW,0.01,0.0,WeatherDisplay:10.37,2013-03-13 11:04:00,
2013-03-13 07:09:00,29.7,28.7,29.76,SW,225,4.0,4.0,96,0.00,OVC,FEW,0.01,0.0,WeatherDisplay:10.37,2013-03-13 11:09:00,
2013-03-13 07:14:00,29.6,28.6,29.77,ESE,117,1.2,0.0,96,0.00,OVC,FEW,0.01,0.0,WeatherDisplay:10.37,2013-03-13 11:14:00,
2013-03-13 07:19:00,29.6,28.6,29.77,SE,127,1.2,1.2,96,0.00,OVC,FEW,0.01,0.0,WeatherDisplay:10.37,2013-03-13 11:19:00,
2013-03-13 07:24:00,29.6,28.6,29.77,NE,49,0.0,0.0,96,0.00,OVC,FEW,0.01,0.0,WeatherDisplay:10.37,2013-03-13 11:24:00,
2013-03-13 07:29:00,29.7,29.0,29.77,West,261,2.0,2.0,97,0.00,OVC,FEW,0.01,0.0,WeatherDisplay:10.37,2013-03-13 11:29:00,
2013-03-13 07:34:00,29.7,29.0,29.77,West,259,1.2,1.2,97,0.00,OVC,FEW,0.01,0.0,WeatherDisplay:10.37,2013-03-13 11:34:00,
2013-03-13 07:39:00,29.6,28.9,29.77,West,262,0.0,0.0,97,0.00,OVC,FEW,0.01,0.0,WeatherDisplay:10.37,2013-03-13 11:39:00,
2013-03-13 07:44:00,29.7,29.0,29.77,South,184,0.0,0.0,97,0.00,OVC,FEW,0.01,5.0,WeatherDisplay:10.37,2013-03-13 11:44:00,
2013-03-13 07:49:00,29.6,28.9,29.77,South,184,1.2,0.0,97,0.00,OVC,FEW,0.01,5.0,WeatherDisplay:10.37,2013-03-13 11:49:00,
2013-03-13 07:54:00,29.6,28.6,29.77,South,184,0.0,0.0,96,0.00,OVC,FEW,0.01,7.0,WeatherDisplay:10.37,2013-03-13 11:54:00,
2013-03-13 07:59:00,29.6,28.6,29.76,South,184,0.0,0.0,96,0.00,OVC,FEW,0.01,9.0,WeatherDisplay:10.37,2013-03-13 11:59:00,
2013-03-13 08:04:00,29.6,28.6,29.76,SSE,161,2.3,0.0,96,0.00,OVC,FEW,0.01,19.0,WeatherDisplay:10.37,2013-03-13 12:04:00,
2013-03-13 08:09:00,29.6,28.6,29.76,WNW,289,1.2,1.2,96,0.00,OVC,FEW,0.01,19.0,WeatherDisplay:10.37,2013-03-13 12:09:00,
2013-03-13 08:14:00,29.6,28.6,29.76,NW,326,1.2,1.2,96,0.00,OVC,FEW,0.01,19.0,WeatherDisplay:10.37,2013-03-13 12:14:00,
2013-03-13 08:19:00,29.7,28.7,29.76,East,83,2.0,2.0,96,0.00,OVC,FEW,0.01,18.0,WeatherDisplay:10.37,2013-03-13 12:19:00,
2013-03-13 08:24:00,29.7,28.7,29.76,WNW,297,3.5,3.5,96,0.00,OVC,FEW,0.01,21.0,WeatherDisplay:10.37,2013-03-13 12:24:00,
2013-03-13 08:29:00,29.7,28.7,29.76,WNW,290,2.3,2.3,96,0.00,OVC,FEW,0.01,26.0,WeatherDisplay:10.37,2013-03-13 12:29:00,
2013-03-13 08:34:00,29.7,28.7,29.76,WNW,298,0.0,0.0,96,0.00,OVC,FEW,0.01,42.0,WeatherDisplay:10.37,2013-03-13 12:34:00,
2013-03-13 08:39:00,29.8,28.8,29.75,WNW,298,0.0,0.0,96,0.00,OVC,FEW,0.01,53.0,WeatherDisplay:10.37,2013-03-13 12:39:00,
2013-03-13 08:44:00,30.0,29.0,29.75,South,186,1.2,0.0,96,0.00,OVC,FEW,0.01,67.0,WeatherDisplay:10.37,2013-03-13 12:44:00,
2013-03-13 08:49:00,30.1,29.1,29.75,West,259,1.2,0.0,96,0.00,OVC,FEW,0.01,49.0,WeatherDisplay:10.37,2013-03-13 12:49:00,
2013-03-13 08:54:00,30.2,29.2,29.75,West,281,1.2,1.2,96,0.00,OVC,FEW,0.01,56.0,WeatherDisplay:10.37,2013-03-13 12:54:00,
2013-03-13 08:59:00,30.2,29.2,29.75,NW,317,0.0,0.0,96,0.00,OVC,FEW,0.01,49.0,WeatherDisplay:10.37,2013-03-13 12:59:00,
2013-03-13 09:04:00,30.2,29.2,29.75,WNW,285,0.0,0.0,96,0.00,OVC,FEW,0.01,54.0,WeatherDisplay:10.37,2013-03-13 13:04:00,
2013-03-13 09:09:00,30.2,29.2,29.74,NW,319,1.2,0.0,96,0.00,OVC,FEW,0.01,53.0,WeatherDisplay:10.37,2013-03-13 13:09:00,
2013-03-13 09:14:00,30.3,29.3,29.74,North,360,2.0,2.0,96,0.00,OVC,FEW,0.01,70.0,WeatherDisplay:10.37,2013-03-13 13:14:00,
2013-03-13 09:19:00,30.4,29.4,29.74,North,5,0.0,0.0,96,0.00,OVC,FEW,0.01,104.0,WeatherDisplay:10.37,2013-03-13 13:19:00,
2013-03-13 09:24:00,30.6,29.6,29.74,West,263,1.0,1.0,96,0.00,OVC,FEW,0.01,113.0,WeatherDisplay:10.37,2013-03-13 13:24:00,
2013-03-13 09:29:00,30.7,29.7,29.74,West,263,1.2,0.0,96,0.00,OVC,FEW,0.01,128.0,WeatherDisplay:10.37,2013-03-13 13:29:00,
2013-03-13 09:34:00,30.9,29.9,29.74,West,265,3.0,3.0,96,0.00,OVC,FEW,0.01,163.0,WeatherDisplay:10.37,2013-03-13 13:34:00,
2013-03-13 09:39:00,30.9,29.9,29.74,West,266,1.2,1.2,96,0.00,OVC,FEW,0.01,176.0,WeatherDisplay:10.37,2013-03-13 13:39:00,
2013-03-13 09:44:00,31.1,29.8,29.74,NW,323,2.3,2.3,95,0.01,RA,FEW,0.02,209.0,WeatherDisplay:10.37,2013-03-13 13:44:00,
2013-03-13 09:50:00,31.2,29.9,29.73,NW,309,0.0,0.0,95,0.01,RA,FEW,0.03,209.0,WeatherDisplay:10.37,2013-03-13 13:50:00,
2013-03-13 09:55:00,31.2,29.7,29.74,WNW,282,3.5,3.5,94,0.02,RA,FEW,0.03,206.0,WeatherDisplay:10.37,2013-03-13 13:55:00,
2013-03-13 10:00:00,31.1,29.6,29.74,NW,316,2.3,2.3,94,0.02,RA,FEW,0.03,229.0,WeatherDisplay:10.37,2013-03-13 14:00:00,
2013-03-13 10:05:00,31.2,29.7,29.74,NW,305,1.2,0.0,94,0.02,OVC,FEW,0.03,243.0,WeatherDisplay:10.37,2013-03-13 14:05:00,
2013-03-13 10:10:00,31.4,29.9,29.74,WSW,258,1.2,1.2,94,0.02,OVC,FEW,0.04,260.0,WeatherDisplay:10.37,2013-03-13 14:10:00,
2013-03-13 10:15:00,31.5,30.0,29.74,West,260,1.2,1.2,94,0.03,RA,FEW,0.04,232.0,WeatherDisplay:10.37,2013-03-13 14:15:00,
2013-03-13 10:20:00,31.6,30.1,29.74,WSW,242,6.0,6.0,94,0.03,RA,FEW,0.04,218.0,WeatherDisplay:10.37,2013-03-13 14:20:00,
2013-03-13 10:25:00,31.6,29.8,29.74,West,279,0.0,0.0,93,0.03,OVC,FEW,0.04,248.0,WeatherDisplay:10.37,2013-03-13 14:25:00,
2013-03-13 10:30:00,31.6,29.8,29.74,WNW,302,0.0,0.0,93,0.04,RA,FEW,0.05,169.0,WeatherDisplay:10.37,2013-03-13 14:30:00,
2013-03-13 10:35:00,31.7,29.9,29.74,WNW,302,1.2,1.2,93,0.04,RA,FEW,0.05,272.0,WeatherDisplay:10.37,2013-03-13 14:35:00,
2013-03-13 10:40:00,31.8,30.0,29.74,SW,227,1.2,1.2,93,0.04,OVC,FEW,0.05,311.0,WeatherDisplay:10.37,2013-03-13 14:40:00,
2013-03-13 10:45:00,32.0,30.2,29.74,SW,229,2.3,0.0,93,0.03,OVC,FEW,0.05,241.0,WeatherDisplay:10.37,2013-03-13 14:45:00,
2013-03-13 10:50:00,32.0,29.9,29.74,SW,230,1.0,1.0,92,0.02,OVC,FEW,0.05,232.0,WeatherDisplay:10.37,2013-03-13 14:50:00,
2013-03-13 10:55:00,32.1,30.0,29.74,SW,233,0.0,0.0,92,0.02,OVC,FEW,0.05,329.0,WeatherDisplay:10.37,2013-03-13 14:55:00,
2013-03-13 11:00:00,32.5,30.7,29.74,WSW,250,3.0,3.0,93,0.02,OVC,FEW,0.05,355.0,WeatherDisplay:10.37,2013-03-13 15:00:00,
2013-03-13 11:05:00,32.6,30.5,29.73,North,355,3.5,3.5,92,0.02,OVC,FEW,0.05,401.0,WeatherDisplay:10.37,2013-03-13 15:05:00,
2013-03-13 11:10:00,32.9,30.6,29.72,North,355,1.2,0.0,91,0.01,OVC,FEW,0.05,381.0,WeatherDisplay:10.37,2013-03-13 15:10:00,
2013-03-13 11:15:00,33.4,31.3,29.72,North,355,2.0,2.0,92,0.01,OVC,FEW,0.05,508.0,WeatherDisplay:10.37,2013-03-13 15:15:00,
2013-03-13 11:20:00,33.4,30.5,29.72,North,355,1.2,1.2,89,0.01,OVC,FEW,0.05,304.0,WeatherDisplay:10.37,2013-03-13 15:20:00,
2013-03-13 11:25:00,33.6,30.4,29.73,North,351,6.9,6.9,88,0.01,OVC,FEW,0.05,297.0,WeatherDisplay:10.37,2013-03-13 15:25:00,
2013-03-13 11:30:00,33.4,30.5,29.73,NNW,346,2.3,2.3,89,0.00,OVC,FEW,0.05,410.0,WeatherDisplay:10.37,2013-03-13 15:30:00,
2013-03-13 11:35:00,33.4,30.2,29.73,NW,308,2.0,2.0,88,0.00,OVC,FEW,0.05,318.0,WeatherDisplay:10.37,2013-03-13 15:35:00,
2013-03-13 11:40:00,33.4,30.5,29.73,NNW,331,1.2,1.2,89,0.00,OVC,FEW,0.05,339.0,WeatherDisplay:10.37,2013-03-13 15:40:00,
2013-03-13 11:45:00,33.4,30.5,29.72,NW,312,3.5,3.5,89,0.00,OVC,FEW,0.05,267.0,WeatherDisplay:10.37,2013-03-13 15:45:00,
2013-03-13 11:50:00,33.4,30.2,29.73,NNW,341,1.2,1.2,88,0.00,OVC,FEW,0.05,367.0,WeatherDisplay:10.37,2013-03-13 15:50:00,
2013-03-13 11:55:00,33.4,30.5,29.72,SW,236,3.5,3.5,89,0.00,OVC,FEW,0.05,336.0,WeatherDisplay:10.37,2013-03-13 15:55:00,
2013-03-13 12:00:00,33.4,30.2,29.72,West,272,4.0,4.0,88,0.00,OVC,FEW,0.05,278.0,WeatherDisplay:10.37,2013-03-13 16:00:00,
2013-03-13 12:05:00,33.3,29.8,29.72,West,265,1.2,1.2,87,0.00,OVC,FEW,0.05,299.0,WeatherDisplay:10.37,2013-03-13 16:05:00,
2013-03-13 12:10:00,33.2,29.5,29.72,WSW,242,3.5,3.5,86,0.00,OVC,FEW,0.05,304.0,WeatherDisplay:10.37,2013-03-13 16:10:00,
2013-03-13 12:15:00,33.1,29.7,29.72,WSW,258,4.0,4.0,87,0.00,OVC,FEW,0.05,272.0,WeatherDisplay:10.37,2013-03-13 16:15:00,
2013-03-13 12:20:00,33.0,29.6,29.72,North,5,3.5,3.5,87,0.00,OVC,FEW,0.05,309.0,WeatherDisplay:10.37,2013-03-13 16:20:00,
2013-03-13 12:25:00,33.1,29.7,29.72,North,5,2.3,2.3,87,0.00,OVC,FEW,0.05,315.0,WeatherDisplay:10.37,2013-03-13 16:25:00,
2013-03-13 12:30:00,33.2,29.8,29.72,SW,235,5.0,5.0,87,0.00,OVC,FEW,0.05,230.0,WeatherDisplay:10.37,2013-03-13 16:30:00,
2013-03-13 12:35:00,33.1,29.4,29.72,WSW,246,2.3,2.3,86,0.00,OVC,FEW,0.05,165.0,WeatherDisplay:10.37,2013-03-13 16:35:00,
2013-03-13 12:40:00,33.1,29.7,29.72,West,264,3.0,3.0,87,0.00,OVC,FEW,0.05,192.0,WeatherDisplay:10.37,2013-03-13 16:40:00,
2013-03-13 12:45:00,32.8,29.1,29.72,WNW,293,0.0,0.0,86,0.00,OVC,FEW,0.05,327.0,WeatherDisplay:10.37,2013-03-13 16:45:00,
2013-03-13 12:50:00,32.9,29.2,29.72,SE,140,2.0,2.0,86,0.00,OVC,FEW,0.05,311.0,WeatherDisplay:10.37,2013-03-13 16:50:00,
2013-03-13 12:55:00,33.1,29.4,29.71,West,269,3.5,3.5,86,0.00,OVC,FEW,0.05,353.0,WeatherDisplay:10.37,2013-03-13 16:55:00,
2013-03-13 13:00:00,33.2,29.8,29.72,WNW,291,3.5,3.5,87,0.00,OVC,FEW,0.05,285.0,WeatherDisplay:10.37,2013-03-13 17:00:00,
2013-03-13 13:05:00,33.3,29.6,29.71,NW,309,1.2,1.2,86,0.00,OVC,FEW,0.05,411.0,WeatherDisplay:10.37,2013-03-13 17:05:00,
2013-03-13 13:10:00,33.4,29.4,29.71,West,268,2.3,0.0,85,0.00,OVC,FEW,0.05,308.0,WeatherDisplay:10.37,2013-03-13 17:10:00,
2013-03-13 13:15:00,33.4,29.4,29.71,NNE,26,3.0,3.0,85,0.00,OVC,FEW,0.05,165.0,WeatherDisplay:10.37,2013-03-13 17:15:00,
2013-03-13 13:20:00,33.4,29.7,29.71,NE,49,5.0,5.0,86,0.00,OVC,FEW,0.05,137.0,WeatherDisplay:10.37,2013-03-13 17:20:00,
2013-03-13 13:25:00,32.9,28.9,29.71,WSW,250,3.5,3.5,85,0.00,OVC,FEW,0.05,172.0,WeatherDisplay:10.37,2013-03-13 17:25:00,
2013-03-13 13:30:00,32.6,28.9,29.71,WSW,252,1.2,1.2,86,0.00,OVC,FEW,0.05,176.0,WeatherDisplay:10.37,2013-03-13 17:30:00,
2013-03-13 13:35:00,32.4,29.0,29.71,NW,316,4.0,4.0,87,0.00,OVC,FEW,0.05,139.0,WeatherDisplay:10.37,2013-03-13 17:35:00,
2013-03-13 13:40:00,32.3,28.9,29.71,NNE,22,2.0,2.0,87,0.00,OVC,FEW,0.05,206.0,WeatherDisplay:10.37,2013-03-13 17:40:00,
2013-03-13 13:45:00,32.3,28.6,29.70,NW,313,1.2,1.2,86,0.00,OVC,FEW,0.05,290.0,WeatherDisplay:10.37,2013-03-13 17:45:00,
2013-03-13 13:50:00,32.5,29.1,29.70,NW,316,1.2,1.2,87,0.00,OVC,FEW,0.05,288.0,WeatherDisplay:10.37,2013-03-13 17:50:00,
2013-03-13 13:56:00,32.7,28.7,29.70,SSW,211,1.2,0.0,85,0.00,OVC,FEW,0.05,197.0,WeatherDisplay:10.37,2013-03-13 17:56:00,
2013-03-13 14:01:00,32.6,28.6,29.71,NNE,25,1.2,0.0,85,0.00,OVC,FEW,0.05,158.0,WeatherDisplay:10.37,2013-03-13 18:01:00,
2013-03-13 14:06:00,32.4,28.7,29.70,SSE,150,5.0,5.0,86,0.00,OVC,FEW,0.05,195.0,WeatherDisplay:10.37,2013-03-13 18:06:00,
2013-03-13 14:12:00,32.3,28.3,29.70,NNW,335,4.0,4.0,85,0.00,OVC,FEW,0.05,220.0,WeatherDisplay:10.37,2013-03-13 18:12:00,
2013-03-13 14:17:00,32.3,28.0,29.70,West,263,1.2,0.0,84,0.00,OVC,FEW,0.05,172.0,WeatherDisplay:10.37,2013-03-13 18:17:00,
2013-03-13 14:23:00,32.4,28.7,29.71,NNE,21,3.5,3.5,86,0.00,OVC,FEW,0.05,151.0,WeatherDisplay:10.37,2013-03-13 18:23:00,
2013-03-13 14:28:00,32.4,28.7,29.71,NW,324,1.2,0.0,86,0.00,OVC,FEW,0.05,176.0,WeatherDisplay:10.37,2013-03-13 18:28:00,
2013-03-13 14:33:00,32.4,28.4,29.70,NNE,15,2.3,2.3,85,0.00,OVC,FEW,0.05,178.0,WeatherDisplay:10.37,2013-03-13 18:33:00,
2013-03-13 14:38:00,32.4,27.8,29.70,NW,326,5.0,5.0,83,0.00,OVC,FEW,0.05,148.0,WeatherDisplay:10.37,2013-03-13 18:38:00,
2013-03-13 14:43:00,32.2,27.6,29.70,West,273,1.0,1.0,83,0.00,OVC,FEW,0.05,171.0,WeatherDisplay:10.37,2013-03-13 18:43:00,
2013-03-13 14:48:00,32.2,27.3,29.70,NW,317,1.2,1.2,82,0.00,OVC,FEW,0.05,178.0,WeatherDisplay:10.37,2013-03-13 18:48:00,
2013-03-13 14:53:00,32.2,27.6,29.70,NNE,12,4.6,4.6,83,0.00,OVC,FEW,0.05,162.0,WeatherDisplay:10.37,2013-03-13 18:53:00,
2013-03-13 14:58:00,32.2,27.3,29.70,WSW,244,3.5,3.5,82,0.00,OVC,FEW,0.05,144.0,WeatherDisplay:10.37,2013-03-13 18:58:00,
2013-03-13 15:03:00,32.0,27.1,29.70,WSW,242,1.2,0.0,82,0.00,OVC,FEW,0.05,114.0,WeatherDisplay:10.37,2013-03-13 19:03:00,
2013-03-13 15:08:00,32.0,27.1,29.70,East,87,2.0,2.0,82,0.00,OVC,FEW,0.05,134.0,WeatherDisplay:10.37,2013-03-13 19:08:00,
2013-03-13 15:13:00,31.9,27.3,29.70,West,278,1.2,0.0,83,0.00,OVC,FEW,0.05,141.0,WeatherDisplay:10.37,2013-03-13 19:13:00,
2013-03-13 15:18:00,31.9,27.0,29.70,NE,55,0.0,0.0,82,0.00,OVC,FEW,0.05,163.0,WeatherDisplay:10.37,2013-03-13 19:18:00,
2013-03-13 15:23:00,31.9,26.7,29.70,SW,226,2.0,2.0,81,0.00,OVC,FEW,0.05,185.0,WeatherDisplay:10.37,2013-03-13 19:23:00,
2013-03-13 15:28:00,32.0,27.4,29.70,NNW,331,2.0,2.0,83,0.00,OVC,FEW,0.05,169.0,WeatherDisplay:10.37,2013-03-13 19:28:00,
2013-03-13 15:33:00,32.0,27.1,29.70,NE,43,4.0,4.0,82,0.00,OVC,FEW,0.05,176.0,WeatherDisplay:10.37,2013-03-13 19:33:00,
2013-03-13 15:38:00,32.1,26.3,29.70,ESE,108,3.5,3.5,79,0.00,OVC,FEW,0.05,162.0,WeatherDisplay:10.37,2013-03-13 19:38:00,
2013-03-13 15:43:00,32.1,26.3,29.70,NNE,30,5.0,5.0,79,0.00,OVC,FEW,0.05,144.0,WeatherDisplay:10.37,2013-03-13 19:43:00,
2013-03-13 15:48:00,32.0,27.4,29.70,NE,43,11.5,11.5,83,0.00,OVC,FEW,0.05,137.0,WeatherDisplay:10.37,2013-03-13 19:48:00,
2013-03-13 15:53:00,32.0,26.5,29.70,NW,317,1.2,0.0,80,0.00,OVC,FEW,0.05,116.0,WeatherDisplay:10.37,2013-03-13 19:53:00,
2013-03-13 15:58:00,31.9,26.1,29.70,SSE,163,1.2,1.2,79,0.00,OVC,FEW,0.05,135.0,WeatherDisplay:10.37,2013-03-13 19:58:00,
2013-03-13 16:03:00,31.8,26.0,29.70,WNW,288,5.0,5.0,79,0.00,OVC,FEW,0.05,116.0,WeatherDisplay:10.37,2013-03-13 20:03:00,
2013-03-13 16:08:00,31.8,26.0,29.70,NW,319,0.0,0.0,79,0.00,OVC,FEW,0.05,102.0,WeatherDisplay:10.37,2013-03-13 20:08:00,
2013-03-13 16:13:00,31.8,26.3,29.70,WSW,245,3.0,3.0,80,0.00,OVC,FEW,0.05,114.0,WeatherDisplay:10.37,2013-03-13 20:13:00,
2013-03-13 16:18:00,31.8,26.3,29.70,WSW,254,3.0,3.0,80,0.00,OVC,FEW,0.05,123.0,WeatherDisplay:10.37,2013-03-13 20:18:00,
2013-03-13 16:23:00,31.8,26.6,29.70,West,277,1.2,0.0,81,0.00,OVC,FEW,0.05,130.0,WeatherDisplay:10.37,2013-03-13 20:23:00,
2013-03-13 16:29:00,31.8,26.0,29.70,SW,217,2.3,2.3,79,0.00,OVC,FEW,0.05,148.0,WeatherDisplay:10.37,2013-03-13 20:29:00,
2013-03-13 16:34:00,31.8,26.0,29.70,SW,224,2.3,2.3,79,0.00,OVC,FEW,0.05,163.0,WeatherDisplay:10.37,2013-03-13 20:34:00,
2013-03-13 16:39:00,31.9,26.1,29.70,North,355,1.2,0.0,79,0.00,OVC,FEW,0.05,165.0,WeatherDisplay:10.37,2013-03-13 20:39:00,
2013-03-13 16:44:00,32.0,25.9,29.70,ESE,103,1.2,1.2,78,0.00,OVC,FEW,0.05,153.0,WeatherDisplay:10.37,2013-03-13 20:44:00,
2013-03-13 16:49:00,32.2,26.4,29.70,NW,325,1.2,1.2,79,0.00,OVC,FEW,0.05,155.0,WeatherDisplay:10.37,2013-03-13 20:49:00,
2013-03-13 16:54:00,32.2,26.1,29.70,ESE,106,1.0,1.0,78,0.00,OVC,FEW,0.05,178.0,WeatherDisplay:10.37,2013-03-13 20:54:00,
2013-03-13 16:59:00,32.1,26.0,29.70,NNE,12,3.0,3.0,78,0.00,OVC,FEW,0.05,120.0,WeatherDisplay:10.37,2013-03-13 20:59:00,
2013-03-13 17:04:00,32.0,26.2,29.70,WSW,247,1.0,1.0,79,0.00,OVC,FEW,0.05,111.0,WeatherDisplay:10.37,2013-03-13 21:04:00,
2013-03-13 17:09:00,31.9,25.5,29.70,North,355,6.0,6.0,77,0.00,OVC,FEW,0.05,118.0,WeatherDisplay:10.37,2013-03-13 21:09:00,
2013-03-13 17:14:00,31.8,25.4,29.70,North,5,0.0,0.0,77,0.00,OVC,FEW,0.05,144.0,WeatherDisplay:10.37,2013-03-13 21:14:00,
2013-03-13 17:19:00,31.9,24.9,29.70,North,10,1.2,1.2,75,0.00,OVC,FEW,0.05,95.0,WeatherDisplay:10.37,2013-03-13 21:19:00,
2013-03-13 17:24:00,31.9,25.2,29.70,NNE,12,1.0,1.0,76,0.00,OVC,FEW,0.05,77.0,WeatherDisplay:10.37,2013-03-13 21:24:00,
2013-03-13 17:29:00,31.7,24.4,29.70,West,279,4.0,4.0,74,0.00,OVC,FEW,0.05,67.0,WeatherDisplay:10.37,2013-03-13 21:29:00,
2013-03-13 17:34:00,31.6,24.6,29.70,NNW,347,2.3,2.3,75,0.00,OVC,FEW,0.05,54.0,WeatherDisplay:10.37,2013-03-13 21:34:00,
2013-03-13 17:39:00,31.3,25.2,29.70,WNW,291,3.5,3.5,78,0.00,OVC,FEW,0.05,72.0,WeatherDisplay:10.37,2013-03-13 21:39:00,
2013-03-13 17:44:00,31.1,24.7,29.70,WNW,292,1.2,0.0,77,0.00,OVC,FEW,0.05,84.0,WeatherDisplay:10.37,2013-03-13 21:44:00,
2013-03-13 17:49:00,30.9,24.8,29.70,WNW,303,2.0,2.0,78,0.00,OVC,FEW,0.05,72.0,WeatherDisplay:10.37,2013-03-13 21:49:00,
2013-03-13 17:54:00,31.0,24.3,29.70,West,275,2.3,2.3,76,0.00,OVC,FEW,0.05,56.0,WeatherDisplay:10.37,2013-03-13 21:54:00,
2013-03-13 17:59:00,31.0,25.2,29.71,West,273,1.2,0.0,79,0.00,OVC,FEW,0.05,35.0,WeatherDisplay:10.37,2013-03-13 21:59:00,
2013-03-13 18:04:00,30.8,24.7,29.71,WSW,254,2.3,2.3,78,0.00,OVC,FEW,0.05,28.0,WeatherDisplay:10.37,2013-03-13 22:04:00,
2013-03-13 18:09:00,30.6,24.9,29.70,WSW,254,0.0,0.0,79,0.00,OVC,FEW,0.05,23.0,WeatherDisplay:10.37,2013-03-13 22:09:00,
2013-03-13 18:14:00,30.4,25.0,29.70,WSW,255,1.2,0.0,80,0.00,OVC,FEW,0.05,30.0,WeatherDisplay:10.37,2013-03-13 22:14:00,
2013-03-13 18:19:00,30.1,25.3,29.70,WSW,255,0.0,0.0,82,0.00,OVC,FEW,0.05,21.0,WeatherDisplay:10.37,2013-03-13 22:19:00,
2013-03-13 18:24:00,29.7,24.3,29.70,WSW,255,0.0,0.0,80,0.00,OVC,FEW,0.05,16.0,WeatherDisplay:10.37,2013-03-13 22:24:00,
2013-03-13 18:29:00,29.5,24.4,29.70,WSW,255,0.0,0.0,81,0.00,OVC,FEW,0.05,12.0,WeatherDisplay:10.37,2013-03-13 22:29:00,
2013-03-13 18:34:00,29.3,24.8,29.70,WSW,256,0.0,0.0,83,0.00,OVC,FEW,0.05,11.0,WeatherDisplay:10.37,2013-03-13 22:34:00,
2013-03-13 18:39:00,29.1,24.0,29.70,WSW,256,0.0,0.0,81,0.00,OVC,FEW,0.05,7.0,WeatherDisplay:10.37,2013-03-13 22:39:00,
2013-03-13 18:44:00,28.9,23.5,29.70,WSW,255,2.3,0.0,80,0.00,OVC,FEW,0.05,5.0,WeatherDisplay:10.37,2013-03-13 22:44:00,
2013-03-13 18:49:00,28.8,23.7,29.70,WSW,256,0.0,0.0,81,0.00,OVC,FEW,0.05,0.0,WeatherDisplay:10.37,2013-03-13 22:49:00,
2013-03-13 18:54:00,28.6,23.8,29.70,WSW,257,0.0,0.0,82,0.00,OVC,FEW,0.05,0.0,WeatherDisplay:10.37,2013-03-13 22:54:00,
2013-03-13 18:59:00,28.5,23.7,29.70,WSW,257,0.0,0.0,82,0.00,OVC,FEW,0.05,0.0,WeatherDisplay:10.37,2013-03-13 22:59:00,
2013-03-13 19:04:00,28.2,23.7,29.71,WSW,257,0.0,0.0,83,0.00,OVC,FEW,0.05,0.0,WeatherDisplay:10.37,2013-03-13 23:04:00,
2013-03-13 19:09:00,28.1,23.9,29.71,WSW,257,1.2,1.2,84,0.00,OVC,FEW,0.05,0.0,WeatherDisplay:10.37,2013-03-13 23:09:00,
2013-03-13 19:14:00,28.0,23.2,29.70,WSW,257,1.0,1.0,82,0.00,OVC,FEW,0.05,0.0,WeatherDisplay:10.37,2013-03-13 23:14:00,
2013-03-13 19:19:00,28.0,23.8,29.71,WSW,258,2.3,2.3,84,0.00,OVC,FEW,0.05,0.0,WeatherDisplay:10.37,2013-03-13 23:19:00,
2013-03-13 19:24:00,28.0,23.5,29.71,West,259,0.0,0.0,83,0.00,OVC,FEW,0.05,0.0,WeatherDisplay:10.37,2013-03-13 23:24:00,
2013-03-13 19:29:00,27.9,24.0,29.71,West,259,0.0,0.0,85,0.00,OVC,FEW,0.05,0.0,WeatherDisplay:10.37,2013-03-13 23:29:00,
2013-03-13 19:34:00,27.8,23.6,29.71,West,261,0.0,0.0,84,0.00,OVC,FEW,0.05,0.0,WeatherDisplay:10.37,2013-03-13 23:34:00,
2013-03-13 19:39:00,27.8,23.3,29.71,West,259,2.3,2.3,83,0.00,OVC,FEW,0.05,0.0,WeatherDisplay:10.37,2013-03-13 23:39:00,
2013-03-13 19:44:00,28.0,23.2,29.71,WNW,284,0.0,0.0,82,0.00,OVC,FEW,0.05,0.0,WeatherDisplay:10.37,2013-03-13 23:44:00,
2013-03-13 19:49:00,28.0,23.8,29.71,WNW,284,0.0,0.0,84,0.00,OVC,FEW,0.05,0.0,WeatherDisplay:10.37,2013-03-13 23:49:00,
2013-03-13 19:55:00,28.0,23.2,29.71,NW,306,6.0,6.0,82,0.00,OVC,FEW,0.05,0.0,WeatherDisplay:10.37,2013-03-13 23:55:00,
2013-03-13 20:00:00,28.1,23.6,29.71,NW,311,1.2,1.2,83,0.00,OVC,FEW,0.05,0.0,WeatherDisplay:10.37,2013-03-14 00:00:00,
2013-03-13 20:05:00,28.1,22.4,29.71,NNW,338,3.5,0.0,79,0.00,OVC,FEW,0.05,0.0,WeatherDisplay:10.37,2013-03-14 00:05:00,
2013-03-13 20:10:00,28.2,22.5,29.71,North,5,0.0,0.0,79,0.00,OVC,FEW,0.05,0.0,WeatherDisplay:10.37,2013-03-14 00:10:00,
2013-03-13 20:15:00,28.3,22.3,29.71,WSW,252,2.3,2.3,78,0.00,OVC,FEW,0.05,0.0,WeatherDisplay:10.37,2013-03-14 00:15:00,
2013-03-13 20:20:00,28.3,22.9,29.71,WSW,255,0.0,0.0,80,0.00,OVC,FEW,0.05,0.0,WeatherDisplay:10.37,2013-03-14 00:20:00,
2013-03-13 20:25:00,28.3,22.6,29.71,North,360,3.0,3.0,79,0.00,OVC,FEW,0.05,0.0,WeatherDisplay:10.37,2013-03-14 00:25:00,
2013-03-13 20:30:00,28.2,22.5,29.71,North,5,2.3,2.3,79,0.00,OVC,FEW,0.05,0.0,WeatherDisplay:10.37,2013-03-14 00:30:00,
2013-03-13 20:35:00,28.2,22.5,29.71,NNW,347,1.2,0.0,79,0.00,OVC,FEW,0.05,0.0,WeatherDisplay:10.37,2013-03-14 00:35:00,
2013-03-13 20:40:00,28.1,23.0,29.71,NW,314,1.2,1.2,81,0.00,OVC,FEW,0.05,0.0,WeatherDisplay:10.37,2013-03-14 00:40:00,
2013-03-13 20:45:00,28.0,22.6,29.71,NW,316,3.0,3.0,80,0.00,OVC,FEW,0.05,0.0,WeatherDisplay:10.37,2013-03-14 00:45:00,
2013-03-13 20:50:00,27.9,21.9,29.71,NW,317,0.0,0.0,78,0.00,OVC,FEW,0.05,0.0,WeatherDisplay:10.37,2013-03-14 00:50:00,
2013-03-13 20:55:00,27.9,22.8,29.71,WSW,241,0.0,0.0,81,0.00,OVC,FEW,0.05,0.0,WeatherDisplay:10.37,2013-03-14 00:55:00,
2013-03-13 21:00:00,27.9,22.5,29.71,NNE,31,0.0,0.0,80,0.00,OVC,FEW,0.05,0.0,WeatherDisplay:10.37,2013-03-14 01:00:00,
2013-03-13 21:05:00,27.8,22.1,29.71,NE,37,2.3,2.3,79,0.00,OVC,FEW,0.05,0.0,WeatherDisplay:10.37,2013-03-14 01:05:00,
2013-03-13 21:10:00,27.8,22.1,29.71,SSE,163,3.5,0.0,79,0.00,OVC,FEW,0.05,0.0,WeatherDisplay:10.37,2013-03-14 01:10:00,
2013-03-13 21:15:00,27.8,22.1,29.72,SSW,193,2.3,2.3,79,0.00,OVC,FEW,0.05,0.0,WeatherDisplay:10.37,2013-03-14 01:15:00,
2013-03-13 21:20:00,27.7,22.3,29.72,SSW,195,0.0,0.0,80,0.00,OVC,FEW,0.05,0.0,WeatherDisplay:10.37,2013-03-14 01:20:00,
2013-03-13 21:25:00,27.7,22.3,29.72,NNW,333,0.0,0.0,80,0.00,OVC,FEW,0.05,0.0,WeatherDisplay:10.37,2013-03-14 01:25:00,
2013-03-13 21:30:00,27.6,22.2,29.72,NNW,339,1.2,0.0,80,0.00,OVC,FEW,0.05,0.0,WeatherDisplay:10.37,2013-03-14 01:30:00,
2013-03-13 21:35:00,27.6,22.2,29.72,North,351,1.2,1.2,80,0.00,OVC,FEW,0.05,0.0,WeatherDisplay:10.37,2013-03-14 01:35:00,
2013-03-13 21:40:00,27.5,22.1,29.72,North,351,0.0,0.0,80,0.00,OVC,FEW,0.05,0.0,WeatherDisplay:10.37,2013-03-14 01:40:00,
2013-03-13 21:45:00,27.6,22.8,29.72,North,355,0.0,0.0,82,0.00,OVC,FEW,0.05,0.0,WeatherDisplay:10.37,2013-03-14 01:45:00,
2013-03-13 21:50:00,27.5,22.7,29.72,North,360,0.0,0.0,82,0.00,OVC,FEW,0.05,0.0,WeatherDisplay:10.37,2013-03-14 01:50:00,
2013-03-13 21:55:00,27.5,22.7,29.72,North,360,0.0,0.0,82,0.00,OVC,FEW,0.05,0.0,WeatherDisplay:10.37,2013-03-14 01:55:00,
2013-03-13 22:00:00,27.4,22.9,29.72,North,360,0.0,0.0,83,0.00,OVC,FEW,0.05,0.0,WeatherDisplay:10.37,2013-03-14 02:00:00,
2013-03-13 22:05:00,27.3,22.5,29.72,NW,325,2.3,2.3,82,0.00,OVC,FEW,0.05,0.0,WeatherDisplay:10.37,2013-03-14 02:05:00,
2013-03-13 22:10:00,27.3,22.5,29.72,NNW,346,2.0,2.0,82,0.00,OVC,FEW,0.05,0.0,WeatherDisplay:10.37,2013-03-14 02:10:00,
2013-03-13 22:15:00,27.1,22.6,29.72,WSW,246,3.0,3.0,83,0.00,OVC,FEW,0.05,0.0,WeatherDisplay:10.37,2013-03-14 02:15:00,
2013-03-13 22:20:00,27.0,22.5,29.72,WNW,290,2.0,2.0,83,0.00,OVC,FEW,0.05,0.0,WeatherDisplay:10.37,2013-03-14 02:20:00,
2013-03-13 22:25:00,26.8,22.6,29.72,SSW,209,2.0,2.0,84,0.00,OVC,FEW,0.05,0.0,WeatherDisplay:10.37,2013-03-14 02:25:00,
2013-03-13 22:30:00,26.6,22.7,29.72,SSW,209,0.0,0.0,85,0.00,OVC,FEW,0.05,0.0,WeatherDisplay:10.37,2013-03-14 02:30:00,
2013-03-13 22:35:00,26.4,22.5,29.72,SSW,209,0.0,0.0,85,0.00,OVC,FEW,0.05,0.0,WeatherDisplay:10.37,2013-03-14 02:35:00,
2013-03-13 22:40:00,26.2,22.3,29.72,SSW,209,0.0,0.0,85,0.00,OVC,FEW,0.05,0.0,WeatherDisplay:10.37,2013-03-14 02:40:00,
2013-03-13 22:45:00,26.0,22.4,29.72,SSW,209,0.0,0.0,86,0.00,OVC,FEW,0.05,0.0,WeatherDisplay:10.37,2013-03-14 02:45:00,
2013-03-13 22:50:00,25.8,22.5,29.72,SSW,210,1.2,1.2,87,0.00,OVC,FEW,0.05,0.0,WeatherDisplay:10.37,2013-03-14 02:50:00,
2013-03-13 22:55:00,25.6,22.3,29.72,SSW,210,0.0,0.0,87,0.00,OVC,FEW,0.05,0.0,WeatherDisplay:10.37,2013-03-14 02:55:00,
2013-03-13 23:00:00,25.5,22.4,29.71,SSW,210,0.0,0.0,88,0.00,OVC,FEW,0.05,0.0,WeatherDisplay:10.37,2013-03-14 03:00:00,
2013-03-13 23:05:00,25.2,22.1,29.71,SSW,210,0.0,0.0,88,0.00,CLR,FEW,0.05,0.0,WeatherDisplay:10.37,2013-03-14 03:05:00,
2013-03-13 23:10:00,25.2,22.4,29.71,SSW,210,1.2,0.0,89,0.00,CLR,FEW,0.05,0.0,WeatherDisplay:10.37,2013-03-14 03:10:00,
2013-03-13 23:15:00,25.0,22.2,29.71,SSW,210,0.0,0.0,89,0.00,CLR,FEW,0.05,0.0,WeatherDisplay:10.37,2013-03-14 03:15:00,
2013-03-13 23:20:00,24.9,22.1,29.71,SSW,203,4.0,4.0,89,0.00,CLR,FEW,0.05,0.0,WeatherDisplay:10.37,2013-03-14 03:20:00,
2013-03-13 23:25:00,24.9,22.4,29.71,SW,229,3.5,3.5,90,0.00,CLR,FEW,0.05,0.0,WeatherDisplay:10.37,2013-03-14 03:25:00,
2013-03-13 23:30:00,24.8,22.3,29.71,SSW,211,0.0,0.0,90,0.00,CLR,FEW,0.05,0.0,WeatherDisplay:10.37,2013-03-14 03:30:00,
2013-03-13 23:35:00,24.8,22.3,29.71,SSW,211,1.0,0.0,90,0.00,CLR,FEW,0.05,0.0,WeatherDisplay:10.37,2013-03-14 03:35:00,
2013-03-13 23:40:00,24.8,22.3,29.70,SSW,211,0.0,0.0,90,0.00,CLR,FEW,0.05,0.0,WeatherDisplay:10.37,2013-03-14 03:40:00,
2013-03-13 23:45:00,24.6,22.1,29.70,SSW,211,0.0,0.0,90,0.00,CLR,FEW,0.05,0.0,WeatherDisplay:10.37,2013-03-14 03:45:00,
2013-03-13 23:50:00,24.5,22.0,29.70,SSW,211,0.0,0.0,90,0.00,CLR,FEW,0.05,0.0,WeatherDisplay:10.37,2013-03-14 03:50:00,
2013-03-13 23:55:00,24.3,22.1,29.70,SSW,211,0.0,0.0,91,0.00,CLR,FEW,0.05,0.0,WeatherDisplay:10.37,2013-03-14 03:55:00,